Sauk Centre, MN

8:42 PM CST on November 21, 2017 (GMT -0600)
Sauk Centre

Weather History for KD39 - October, 2013

Change the Weather History Date:

Thursday, October 10, 2013

  Actual Average (KGHW) Record (KGHW)
Temperature  
Mean Temperature 64 °F -  
Max Temperature 76 °F 58 °F 80 °F (1955)
Min Temperature 51 °F 36 °F 19 °F (1970)
Degree Days  
Heating Degree Days 2    
Growing Degree Days 14 (Base 50)    
Moisture  
Dew Point 50 °F    
Average Humidity 65    
Maximum Humidity 82    
Minimum Humidity 44    
Precipitation  
Precipitation 0.00 in - - ()
Sea Level Pressure  
Sea Level Pressure 29.89 in    
Wind  
Wind Speed 10 mph (SE)    
Max Wind Speed 22 mph    
Max Gust Speed 30 mph    
Visibility 10 miles    
Events      
Averages and records for this station are not official NWS values.
T = Trace of Precipitation, MM = Missing Value Source: NWS Daily Summary

Daily Weather History Graph

Daily Weather History Graph

Search for Another Location

Airport or City:

Trip Planner

Search our weather history database for the weather conditions in past years. The results will help you decide how hot, cold, wet, or windy it might be!

Date:

Astronomy

Oct. 10, 2013 Rise Set
Actual Time 7:29 AM CDT 6:42 PM CDT
Civil Twilight 7:00 AM CDT 7:12 PM CDT
Nautical Twilight 6:25 AM CDT 7:46 PM CDT
Astronomical Twilight 5:51 AM CDT 8:21 PM CDT
Moon 1:33 PM CDT (10/10) 11:10 PM CDT (10/10)
Length of Visible Light 12h 12m
Length of Day
11h 12m
Waxing Crescent, 36% of the Moon is Illuminated
Oct 10
Waxing Crescent
Oct 11
First Quarter
Oct 18
Full
Oct 26
Last Quarter
Nov 3
New

Hourly Weather History & Observations

Time (CDT) Temp. Dew Point Humidity Pressure Visibility Wind Dir Wind Speed Gust Speed Precip Events Conditions
12:11 AM 54.7 °F 47.5 °F 77% 29.99 in 10.0 mi SE 8.1 mph - N/A   Clear
12:31 AM 55.8 °F 47.3 °F 73% 29.99 in 10.0 mi SSE 8.1 mph - N/A   Clear
12:51 AM 54.5 °F 47.1 °F 76% 29.99 in 10.0 mi SE 6.9 mph - N/A   Clear
1:11 AM 54.9 °F 46.9 °F 75% 29.99 in 10.0 mi SE 6.9 mph - N/A   Clear
1:31 AM 54.5 °F 46.8 °F 75% 29.99 in 10.0 mi SE 4.6 mph - N/A   Clear
1:51 AM 53.1 °F 46.6 °F 79% 29.99 in 10.0 mi SE 4.6 mph - N/A   Clear
2:11 AM 52.7 °F 46.4 °F 79% 29.99 in 10.0 mi SE 4.6 mph - N/A   Clear
2:31 AM 53.1 °F 46.8 °F 79% 29.98 in 10.0 mi SE 6.9 mph - N/A   Clear
2:51 AM 52.7 °F 46.6 °F 80% 29.98 in 10.0 mi SE 8.1 mph - N/A   Clear
3:11 AM 52.9 °F 46.8 °F 80% 29.97 in 10.0 mi SE 8.1 mph - N/A   Clear
3:31 AM 52.7 °F 46.6 °F 80% 29.97 in 10.0 mi SE 8.1 mph - N/A   Clear
3:51 AM 53.2 °F 46.6 °F 78% 29.97 in 10.0 mi SE 6.9 mph - N/A   Clear
4:11 AM 53.1 °F 46.6 °F 79% 29.97 in 10.0 mi SE 8.1 mph - N/A   Clear
4:31 AM 52.7 °F 46.6 °F 80% 29.97 in 10.0 mi SE 8.1 mph - N/A   Clear
4:51 AM 52.2 °F 46.4 °F 81% 29.97 in 10.0 mi SE 8.1 mph - N/A   Clear
5:11 AM 51.8 °F 46.4 °F 82% 29.96 in 10.0 mi SE 6.9 mph - N/A   Clear
5:31 AM 51.8 °F 46.6 °F 82% 29.96 in 10.0 mi SE 8.1 mph - N/A   Clear
5:51 AM 52.0 °F 46.4 °F 81% 29.96 in 10.0 mi SE 6.9 mph - N/A   Clear
6:11 AM 52.0 °F 46.4 °F 81% 29.95 in 10.0 mi SE 6.9 mph - N/A   Clear
6:31 AM 51.6 °F 46.4 °F 82% 29.95 in 10.0 mi SE 6.9 mph - N/A   Clear
6:51 AM 52.0 °F 46.4 °F 81% 29.95 in 10.0 mi SE 6.9 mph - N/A   Clear
7:11 AM 51.8 °F 46.4 °F 82% 29.94 in 10.0 mi ESE 8.1 mph - N/A   Clear
7:31 AM 51.6 °F 46.4 °F 82% 29.94 in 10.0 mi SE 8.1 mph - N/A   Clear
7:51 AM 52.0 °F 46.4 °F 81% 29.94 in 10.0 mi SE 8.1 mph - N/A   Clear
8:11 AM 52.3 °F 46.4 °F 80% 29.94 in 10.0 mi SE 8.1 mph - N/A   Clear
8:31 AM 53.1 °F 46.8 °F 79% 29.94 in 10.0 mi SE 8.1 mph - N/A   Clear
8:51 AM 53.2 °F 47.1 °F 80% 29.93 in 10.0 mi SE 10.4 mph - N/A   Clear
9:11 AM 54.3 °F 47.7 °F 78% 29.93 in 10.0 mi SE 9.2 mph - N/A   Clear
9:31 AM 56.3 °F 48.6 °F 75% 29.92 in 10.0 mi SE 11.5 mph - N/A   Clear
9:51 AM 58.1 °F 49.5 °F 73% 29.93 in 10.0 mi SSE 9.2 mph - N/A   Clear
10:11 AM 59.4 °F 50.0 °F 71% 29.92 in 10.0 mi SSE 10.4 mph 16.1 mph N/A   Clear
10:31 AM 60.4 °F 50.7 °F 70% 29.92 in 10.0 mi SE 11.5 mph - N/A   Clear
10:51 AM 62.6 °F 51.4 °F 67% 29.92 in 10.0 mi SSE 9.2 mph - N/A   Clear
11:11 AM 64.9 °F 52.7 °F 64% 29.91 in 10.0 mi SSE 12.7 mph - N/A   Clear
11:31 AM 64.0 °F 52.0 °F 65% 29.91 in 10.0 mi SSE 12.7 mph 16.1 mph N/A   Clear
11:51 AM 64.6 °F 52.3 °F 64% 29.90 in 10.0 mi SSE 10.4 mph - N/A   Clear
12:11 PM 66.2 °F 53.2 °F 63% 29.90 in 10.0 mi SSE 11.5 mph - N/A   Clear
12:31 PM 68.9 °F 53.8 °F 58% 29.90 in 10.0 mi SE 16.1 mph - N/A   Clear
12:51 PM 68.7 °F 53.6 °F 58% 29.90 in 10.0 mi SSE 15.0 mph - N/A   Clear
1:11 PM 71.1 °F 54.5 °F 56% 29.89 in 10.0 mi SSE 12.7 mph 16.1 mph N/A   Clear
1:30 PM 72.5 °F 53.8 °F 52% 29.88 in 10.0 mi SSE 16.1 mph 21.9 mph N/A   Clear
1:51 PM 72.3 °F 52.5 °F 50% 29.87 in 10.0 mi SSE 18.4 mph 25.3 mph N/A   Clear
2:11 PM 75.0 °F 53.8 °F 47% 29.87 in 10.0 mi South 18.4 mph 24.2 mph N/A   Clear
2:31 PM 75.4 °F 52.9 °F 45% 29.86 in 10.0 mi South 21.9 mph 29.9 mph N/A   Clear
2:51 PM 75.4 °F 54.1 °F 48% 29.85 in 10.0 mi SSE 12.7 mph - N/A   Clear
3:11 PM 76.6 °F 53.4 °F 44% 29.84 in 10.0 mi SSE 20.7 mph 27.6 mph N/A   Clear
3:31 PM 76.3 °F 53.6 °F 45% 29.84 in 10.0 mi SSE 19.6 mph 24.2 mph N/A   Clear
3:51 PM 75.7 °F 54.3 °F 47% 29.83 in 10.0 mi SE 17.3 mph 28.8 mph N/A   Clear
4:11 PM 74.3 °F 53.6 °F 48% 29.83 in 10.0 mi SE 15.0 mph 20.7 mph N/A   Clear
4:31 PM 75.0 °F 54.1 °F 48% 29.82 in 10.0 mi SSE 19.6 mph 25.3 mph N/A   Clear
4:51 PM 75.2 °F 54.3 °F 48% 29.82 in 10.0 mi SE 15.0 mph 20.7 mph N/A   Clear
5:11 PM 73.9 °F 54.0 °F 50% 29.82 in 10.0 mi SSE 13.8 mph 20.7 mph N/A   Clear
5:31 PM 72.7 °F 52.7 °F 49% 29.82 in 10.0 mi SSE 12.7 mph 18.4 mph N/A   Clear
5:51 PM 71.6 °F 52.3 °F 51% 29.82 in 10.0 mi SE 10.4 mph - N/A   Clear
6:11 PM 71.1 °F 51.8 °F 50% 29.82 in 10.0 mi SE 11.5 mph - N/A   Clear
6:31 PM 70.0 °F 52.0 °F 53% 29.82 in 10.0 mi SE 11.5 mph - N/A   Clear
6:51 PM 69.4 °F 50.9 °F 52% 29.82 in 10.0 mi SE 11.5 mph 19.6 mph N/A   Clear
7:11 PM 69.1 °F 49.8 °F 50% 29.82 in 10.0 mi SE 11.5 mph - N/A   Clear
7:31 PM 68.9 °F 49.6 °F 50% 29.82 in 10.0 mi SE 10.4 mph - N/A   Clear
7:51 PM 67.5 °F 50.0 °F 53% 29.82 in 10.0 mi ESE 10.4 mph - N/A   Clear
8:11 PM 67.3 °F 50.9 °F 56% 29.82 in 10.0 mi SE 12.7 mph - N/A   Clear
8:31 PM 66.2 °F 51.4 °F 59% 29.82 in 10.0 mi ESE 11.5 mph 19.6 mph N/A   Clear
8:51 PM 65.8 °F 51.1 °F 59% 29.82 in 10.0 mi ESE 11.5 mph 18.4 mph N/A   Clear
9:11 PM 64.9 °F 50.7 °F 60% 29.82 in 10.0 mi ESE 11.5 mph 17.3 mph N/A   Clear
9:31 PM 64.6 °F 50.0 °F 59% 29.82 in 10.0 mi SE 12.7 mph - N/A   Clear
9:50 PM 63.7 °F 49.1 °F 59% 29.82 in 10.0 mi SE 11.5 mph - N/A   Clear
10:11 PM 63.3 °F 48.6 °F 59% 29.82 in 10.0 mi ESE 12.7 mph - N/A   Clear
10:31 PM 63.5 °F 48.0 °F 57% 29.82 in 10.0 mi SE 10.4 mph - N/A   Clear
10:51 PM 63.0 °F 48.2 °F 59% 29.82 in 10.0 mi SE 11.5 mph - N/A   Clear
11:11 PM 62.1 °F 48.2 °F 60% 29.82 in 10.0 mi SE 10.4 mph 17.3 mph N/A   Clear
11:31 PM 61.7 °F 48.2 °F 61% 29.81 in 10.0 mi ESE 8.1 mph - N/A   Clear
11:51 PM 60.8 °F 48.4 °F 64% 29.81 in 10.0 mi SE 10.4 mph - N/A   Clear